| time (UTC) | temp F | wind direction | speed MPH | gust MPH | rain 1hr in | rain 24hr in | rain mn in | humidity % | barometer mb |
| 20260904154547 | 57 | 233 | 5.0 | 11.0 | 0.00 | 0.00 | 0.00 | 62 | 1007.8 |
| 20260904153055 | 56 | 227 | 6.0 | 11.0 | 0.00 | 0.00 | 0.00 | 65 | 1007.9 |
| 20260904151546 | 56 | 258 | 4.0 | 8.0 | 0.00 | 0.00 | 0.00 | 66 | 1007.9 |
| 20260904150045 | 56 | 232 | 0.0 | 1.0 | 0.00 | 0.00 | 0.00 | 64 | 1007.9 |
| 20260904144544 | 56 | 237 | 0.0 | 4.0 | 0.00 | 0.00 | 0.00 | 64 | 1007.6 |
| 20260904143042 | 56 | 246 | 2.0 | 7.0 | 0.00 | 0.00 | 0.00 | 64 | 1007.5 |
| 20260904141542 | 56 | 257 | 3.0 | 8.0 | 0.00 | 0.00 | 0.00 | 64 | 1007.1 |
| 20260904140039 | 55 | 272 | 5.0 | 8.0 | 0.00 | 0.00 | 0.00 | 65 | 1007.1 |
| 20260904134537 | 55 | 274 | 4.0 | 7.0 | 0.00 | 0.00 | 0.00 | 65 | 1006.9 |
| 20260904133038 | 55 | 264 | 3.0 | 8.0 | 0.00 | 0.00 | 0.00 | 64 | 1006.9 |
| 20260904131554 | 55 | 259 | 3.0 | 5.0 | 0.00 | 0.00 | 0.00 | 64 | 1006.7 |
| 20260904130039 | 56 | 269 | 4.0 | 8.0 | 0.00 | 0.00 | 0.00 | 64 | 1006.7 |
| 20260904124533 | 56 | 260 | 5.0 | 8.0 | 0.00 | 0.00 | 0.00 | 63 | 1006.7 |
| 20260904123034 | 56 | 238 | 4.0 | 7.0 | 0.00 | 0.00 | 0.00 | 63 | 1006.5 |
| 20260904121533 | 56 | 229 | 4.0 | 6.0 | 0.00 | 0.00 | 0.00 | 63 | 1006.4 |
| 20260904120037 | 56 | 226 | 1.0 | 5.0 | 0.00 | 0.00 | 0.00 | 61 | 1006.6 |
| 20260904114531 | 56 | 233 | 0.0 | 7.0 | 0.00 | 0.00 | 0.00 | 61 | 1006.5 |
| 20260904113031 | 55 | 34 | 0.0 | 0.0 | 0.00 | 0.00 | 0.00 | 66 | 1006.4 |
| 20260904111540 | 55 | 34 | 0.0 | 0.0 | 0.00 | 0.00 | 0.00 | 65 | 1006.4 |
| 20260904110028 | 55 | 34 | 0.0 | 1.0 | 0.00 | 0.00 | 0.00 | 66 | 1006.4 |
| 20260904104528 | 55 | 34 | 0.0 | 1.0 | 0.00 | 0.00 | 0.00 | 65 | 1006.3 |
| 20260904103034 | 55 | 34 | 0.0 | 4.0 | 0.00 | 0.00 | 0.00 | 67 | 1006.1 |
| 20260904101525 | 55 | 81 | 0.0 | 0.0 | 0.00 | 0.00 | 0.00 | 67 | 1006.1 |
| 20260904100025 | 55 | 199 | 0.0 | 0.0 | 0.00 | 0.00 | 0.00 | 66 | 1006.2 |
| 20260904094524 | 55 | 193 | 0.0 | 2.0 | 0.00 | 0.00 | 0.00 | 68 | 1006.1 |
| 20260904093023 | 55 | 236 | 2.0 | 3.0 | 0.00 | 0.00 | 0.00 | 68 | 1006.2 |
| 20260904091523 | 55 | 243 | 0.0 | 4.0 | 0.00 | 0.00 | 0.00 | 67 | 1006.2 |
| 20260904090021 | 55 | 240 | 3.0 | 10.0 | 0.00 | 0.00 | 0.00 | 69 | 1006.4 |
| 20260904084521 | 55 | 237 | 4.0 | 8.0 | 0.00 | 0.00 | 0.00 | 69 | 1006.5 |
| 20260904083024 | 54 | 251 | 5.0 | 11.0 | 0.00 | 0.00 | 0.00 | 70 | 1006.5 |
| 20260904081518 | 55 | 241 | 6.0 | 11.0 | 0.00 | 0.00 | 0.00 | 71 | 1006.5 |
| 20260904080017 | 55 | 227 | 5.0 | 11.0 | 0.00 | 0.00 | 0.00 | 70 | 1006.5 |
| 20260904074534 | 54 | 262 | 9.0 | 13.0 | 0.00 | 0.00 | 0.00 | 72 | 1006.4 |
| 20260904073019 | 55 | 242 | 6.0 | 12.0 | 0.00 | 0.00 | 0.00 | 68 | 1006.6 |
| 20260904071509 | 57 | 236 | 8.0 | 16.0 | 0.00 | 0.00 | 0.00 | 63 | 1006.5 |
| 20260904070009 | 56 | 120 | 9.0 | 15.0 | 0.00 | 0.00 | 0.00 | 62 | 1006.5 |
| 20260904064513 | 57 | 277 | 9.0 | 15.0 | 0.00 | 0.00 | 0.00 | 62 | 1006.3 |
| 20260904063004 | 57 | 226 | 8.0 | 15.0 | 0.00 | 0.00 | 0.00 | 58 | 1006.3 |
| 20260904061503 | 58 | 210 | 6.0 | 14.0 | 0.00 | 0.00 | 0.00 | 57 | 1006.4 |
| 20260904060004 | 57 | 224 | 3.0 | 8.0 | 0.00 | 0.00 | 0.00 | 57 | 1006.3 |
| 20260904054506 | 57 | 232 | 8.0 | 10.0 | 0.00 | 0.00 | 0.00 | 58 | 1006.5 |
| 20260904053001 | 57 | 231 | 3.0 | 8.0 | 0.00 | 0.00 | 0.00 | 58 | 1006.4 |
| 20260904051614 | 58 | 251 | 3.0 | 9.0 | 0.00 | 0.00 | 0.00 | 56 | 1006.6 |
| 20260904050101 | 57 | 227 | 7.0 | 13.0 | 0.00 | 0.00 | 0.00 | 57 | 1006.6 |
| 20260904044608 | 57 | 238 | 5.0 | 12.0 | 0.00 | 0.00 | 0.00 | 57 | 1006.5 |
| 20260904043101 | 58 | 259 | 11.0 | 19.0 | 0.00 | 0.00 | 0.00 | 56 | 1006.6 |
| 20260904041602 | 57 | 226 | 10.0 | 15.0 | 0.00 | 0.00 | 0.00 | 57 | 1006.7 |
| 20260904040108 | 58 | 218 | 9.0 | 16.0 | 0.00 | 0.00 | 0.00 | 56 | 1006.6 |
| 20260904034607 | 58 | 201 | 5.0 | 16.0 | 0.00 | 0.00 | 0.00 | 55 | 1006.5 |
| 20260904033101 | 58 | 221 | 8.0 | 14.0 | 0.00 | 0.00 | 0.00 | 56 | 1006.5 |
| 20260904031554 | 57 | 207 | 7.0 | 13.0 | 0.00 | 0.00 | 0.00 | 56 | 1006.5 |
| 20260904030054 | 57 | 251 | 8.0 | 13.0 | 0.00 | 0.00 | 0.00 | 57 | 1006.6 |
| 20260904024554 | 57 | 245 | 7.0 | 13.0 | 0.00 | 0.00 | 0.00 | 57 | 1006.5 |
| 20260904023055 | 57 | 227 | 6.0 | 17.0 | 0.00 | 0.00 | 0.00 | 57 | 1006.7 |
| 20260904021554 | 58 | 200 | 9.0 | 16.0 | 0.00 | 0.00 | 0.00 | 57 | 1006.8 |
| 20260904020053 | 58 | 234 | 10.0 | 17.0 | 0.00 | 0.00 | 0.00 | 56 | 1006.8 |
| 20260904014623 | 58 | 231 | 10.0 | 22.0 | 0.00 | 0.00 | 0.00 | 55 | 1006.8 |
| 20260904013051 | 59 | 277 | 12.0 | 20.0 | 0.00 | 0.00 | 0.00 | 54 | 1006.8 |
| 20260904011553 | 60 | 237 | 11.0 | 25.0 | 0.00 | 0.00 | 0.00 | 53 | 1006.8 |
| 20260904010058 | 60 | 229 | 16.0 | 22.0 | 0.00 | 0.00 | 0.00 | 52 | 1006.7 |
| 20260904004552 | 61 | 214 | 12.0 | 23.0 | 0.00 | 0.00 | 0.00 | 52 | 1006.7 |
| 20260904003056 | 62 | 232 | 16.0 | 24.0 | 0.00 | 0.00 | 0.00 | 50 | 1006.8 |
| 20260904001548 | 63 | 232 | 14.0 | 24.0 | 0.00 | 0.00 | 0.00 | 49 | 1006.9 |
| 20260904000043 | 62 | 231 | 13.0 | 22.0 | 0.00 | 0.00 | 0.00 | 50 | 1007.0 |
| 20260903234542 | 62 | 228 | 14.0 | 27.0 | 0.00 | 0.00 | 0.00 | 50 | 1007.2 |
| 20260903233049 | 62 | 229 | 18.0 | 28.0 | 0.00 | 0.00 | 0.00 | 51 | 1006.7 |
| 20260903231540 | 63 | 249 | 19.0 | 25.0 | 0.00 | 0.00 | 0.00 | 48 | 1006.7 |
| 20260903230045 | 64 | 215 | 19.0 | 28.0 | 0.00 | 0.00 | 0.00 | 47 | 1006.7 |
| 20260903224538 | 64 | 223 | 22.0 | 29.0 | 0.00 | 0.00 | 0.00 | 47 | 1006.8 |
| 20260903223039 | 65 | 231 | 17.0 | 30.0 | 0.00 | 0.00 | 0.00 | 46 | 1007.0 |
| 20260903221537 | 65 | 237 | 18.0 | 30.0 | 0.00 | 0.00 | 0.00 | 45 | 1007.2 |
| 20260903220042 | 65 | 224 | 21.0 | 30.0 | 0.00 | 0.00 | 0.00 | 45 | 1007.1 |
| 20260903214537 | 66 | 207 | 22.0 | 32.0 | 0.00 | 0.00 | 0.00 | 44 | 1007.1 |
| 20260903213034 | 66 | 233 | 26.0 | 37.0 | 0.00 | 0.00 | 0.00 | 44 | 1006.6 |
| 20260903211533 | 66 | 236 | 27.0 | 35.0 | 0.00 | 0.00 | 0.00 | 43 | 1006.5 |
| 20260903210032 | 63 | 244 | 25.0 | 33.0 | 0.00 | 0.00 | 0.00 | 46 | 1006.8 |
| 20260903204532 | 65 | 236 | 21.0 | 30.0 | 0.00 | 0.00 | 0.00 | 44 | 1007.4 |
| 20260903203027 | 65 | 243 | 20.0 | 32.0 | 0.00 | 0.00 | 0.00 | 44 | 1007.8 |
| 20260903201526 | 65 | 234 | 20.0 | 30.0 | 0.00 | 0.00 | 0.00 | 43 | 1008.1 |
| 20260903200026 | 65 | 215 | 18.0 | 26.0 | 0.00 | 0.00 | 0.00 | 43 | 1008.1 |
| 20260903194524 | 65 | 217 | 15.0 | 25.0 | 0.00 | 0.00 | 0.00 | 44 | 1008.4 |
| 20260903193023 | 64 | 244 | 16.0 | 26.0 | 0.00 | 0.00 | 0.00 | 43 | 1008.7 |
| 20260903191520 | 66 | 230 | 18.0 | 26.0 | 0.00 | 0.00 | 0.00 | 41 | 1008.7 |
| 20260903190019 | 65 | 216 | 16.0 | 22.0 | 0.00 | 0.00 | 0.00 | 41 | 1009.2 |
| 20260903184517 | 65 | 289 | 14.0 | 21.0 | 0.00 | 0.00 | 0.00 | 41 | 1009.6 |
| 20260903183014 | 64 | 233 | 17.0 | 25.0 | 0.00 | 0.00 | 0.00 | 41 | 1009.9 |
| 20260903181512 | 64 | 240 | 15.0 | 26.0 | 0.00 | 0.00 | 0.00 | 40 | 1010.0 |
| 20260903180011 | 63 | 248 | 15.0 | 26.0 | 0.00 | 0.00 | 0.00 | 42 | 1009.8 |
| 20260903174510 | 63 | 246 | 16.0 | 23.0 | 0.00 | 0.00 | 0.00 | 42 | 1010.2 |
| 20260903173008 | 61 | 212 | 16.0 | 24.0 | 0.00 | 0.00 | 0.00 | 45 | 1010.4 |
| 20260903171508 | 61 | 230 | 16.0 | 25.0 | 0.00 | 0.00 | 0.00 | 45 | 1010.3 |
| 20260903170014 | 62 | 212 | 7.0 | 15.0 | 0.00 | 0.00 | 0.00 | 37 | 1010.7 |
| 20260903164507 | 63 | 160 | 3.0 | 12.0 | 0.00 | 0.00 | 0.00 | 39 | 1010.7 |
| 20260903163007 | 62 | 143 | 2.0 | 9.0 | 0.00 | 0.00 | 0.00 | 41 | 1010.8 |
| 20260903161501 | 60 | 154 | 5.0 | 12.0 | 0.00 | 0.00 | 0.00 | 40 | 1010.8 |
| 20260903160100 | 60 | 243 | 14.0 | 22.0 | 0.00 | 0.00 | 0.00 | 41 | 1010.9 |